Regional Weather Roundup
Issued by NWS

Home | Current Version | Previous Version | Graphics & Text | Print | Product List | Glossary On
Versions: 1 2 3 4 5 6 7 8 9 10 11 12 13 14 15 16 17 18 19 20 21 22 23 24 25 26 27 28 29 30 31 32 33 34 35 36 37 38 39 40 41 42 43 44 45 46 47 48 49 50
000
ASUS43 KFSD 291002
RWRSD

WEATHER ROUNDUP FOR SOUTH DAKOTA
NATIONAL WEATHER SERVICE SIOUX FALLS SD
500 AM CDT FRI APR 29 2016

NOTE: "FAIR" INDICATES FEW OR NO CLOUDS BELOW 12,000 FEET WITH NO
SIGNIFICANT WEATHER AND/OR OBSTRUCTIONS TO VISIBILITY.


SDZ001>005-009-010-012>017-291100-
NORTHWEST AND NORTH CENTRAL SOUTH DAKOTA

CITY           SKY/WX    TMP DP  RH WIND       PRES   REMARKS
BUFFALO          N/A     38  33  82 N3        30.05S
FAITH            N/A     36  31  82 N3        30.12R
MOBRIDGE       MOCLDY    38  36  92 CALM      30.12S
$$

SDZ012>016-024>037-041>051-057-063-072>074-291100-
SOUTHWEST AND SOUTH CENTRAL SOUTH DAKOTA

CITY           SKY/WX    TMP DP  RH WIND       PRES   REMARKS
RAPID CTY ARPT CLOUDY    36  33  89 CALM      30.11R
PIERRE         CLOUDY    41  37  86 NE9       30.12R
CUSTER         CLOUDY    31  28  89 VRB3      30.05S
PHILIP         CLOUDY    39  35  86 N9        30.11F
PINE RIDGE     CLOUDY    37  32  82 CALM      30.11R
WINNER         CLOUDY    42  38  85 NE3       30.11R
$$

SDZ004>011-016>023-039-040-291100-
NORTHEAST SOUTH DAKOTA

CITY           SKY/WX    TMP DP  RH WIND       PRES   REMARKS
ABERDEEN       CLOUDY    36  33  89 CALM      30.17R FOG
WATERTOWN      FOG       34  33  96 CALM      30.14S VSB 1
BROOKINGS      CLOUDY    37  35  92 NE3       30.14R
SISSETON         N/A     39  36  89 SW3       30.16S
$$

SDZ017-020-022-023-036>040-048>070-291100-
SOUTHEAST SOUTH DAKOTA

CITY           SKY/WX    TMP DP  RH WIND       PRES   REMARKS
SIOUX FALLS    CLOUDY    40  37  89 NE5       30.13S
HURON          CLOUDY    38  36  92 N7        30.14F
MITCHELL       CLOUDY    40  37  89 CALM      30.16R
YANKTON        MOCLDY    39  37  93 CALM      30.13S
$$

ABBREVIATIONS USED IN REMARKS
   TC - TEMPERATURE IN CELSIUS
  WCI - WIND CHILL INDEX
   HX - HEAT INDEX
  VSB - VISIBILITY





USA.gov is the U.S. government's official web portal to all federal, state and local government web resources and services.